Weather History for Mobile, AL

Change the Weather History Date:

Sunday, July 21, 2013

  Actual Average Record
Temperature  
Mean Temperature 81 °F 82 °F  
Max Temperature 88 °F 91 °F 98 °F (1939)
Min Temperature 73 °F 73 °F 67 °F (1939)
Cooling Degree Days 16 17  
Month to date cooling degree days 314 355  
Year to date cooling degree days 1164 1244  
Since 1 June cooling degree days 800 799  
Growing Degree Days 30 (Base 50)    
Moisture  
Dew Point 72 °F    
Average Humidity 77    
Maximum Humidity 94    
Minimum Humidity 59    
Precipitation  
Precipitation 0.33 in 0.23 in 4.68 in (1946)
Month to date precipitation 7.75 4.89  
Year to date precipitation 40.40 37.84  
Sea Level Pressure  
Sea Level Pressure 30.04 in    
Wind  
Wind Speed 7 mph (SW)    
Max Wind Speed 20 mph    
Max Gust Speed 30 mph    
Visibility 9 miles    
Events Rain , Thunderstorm    
T = Trace of Precipitation, MM = Missing Value Source: NWS Daily Summary

Daily Weather History Graph

Daily Weather History Graph

Search for Another Location

Airport:

Trip Planner

Search our weather history database for the weather conditions in past years. The results will help you decide how hot, cold, wet, or windy it might be!

Date:

Astronomy

Jul. 21, 2013 Rise Set
Actual Time 6:04 AM CDT 7:54 PM CDT
Civil Twilight 5:37 AM CDT 8:21 PM CDT
Nautical Twilight 5:05 AM CDT 8:53 PM CDT
Astronomical Twilight 4:30 AM CDT 9:27 PM CDT
Moon 6:55 PM CDT (7/21) 4:48 AM CDT (7/21)
Length of Visible Light 14h 43m
Length of Day
13h 50m
Waxing Gibbous, 98% of the Moon is Illuminated
Jul 21
Waxing Gibbous
Jul 22
Full
Jul 29
Last Quarter
Aug 6
New
Aug 14
First Quarter

Hourly Weather History & Observations

Time (CDT) Temp. Heat Index Dew Point Humidity Pressure Visibility Wind Dir Wind Speed Gust Speed Precip Events Conditions
12:56 AM 77.0 °F - 73.0 °F 88% 30.01 in 10.0 mi South 4.6 mph - N/A   Clear
1:56 AM 77.0 °F - 73.0 °F 88% 30.00 in 10.0 mi SW 3.5 mph - N/A   Partly Cloudy
2:56 AM 77.0 °F - 73.0 °F 88% 30.00 in 10.0 mi SW 3.5 mph - N/A   Scattered Clouds
3:34 AM 77.0 °F - 73.4 °F 89% 30.01 in 10.0 mi SSW 5.8 mph - N/A   Mostly Cloudy
3:54 AM 77.0 °F - 73.4 °F 89% 30.01 in 8.0 mi SSW 5.8 mph - 0.00 in Rain Light Rain
3:56 AM 77.0 °F - 73.0 °F 88% 30.00 in 8.0 mi SSW 4.6 mph - 0.00 in Rain Light Rain
4:56 AM 75.0 °F - 71.1 °F 87% 30.01 in 10.0 mi SW 4.6 mph - 0.03 in Rain Light Rain
5:56 AM 73.9 °F - 71.1 °F 91% 30.03 in 10.0 mi SW 3.5 mph - 0.00 in   Mostly Cloudy
6:56 AM 73.9 °F - 71.1 °F 91% 30.04 in 10.0 mi Calm Calm - N/A   Scattered Clouds
7:56 AM 79.0 °F - 73.0 °F 82% 30.05 in 10.0 mi Calm Calm - N/A   Scattered Clouds
8:56 AM 82.0 °F 87.9 °F 73.9 °F 76% 30.05 in 10.0 mi SW 6.9 mph - N/A   Scattered Clouds
9:56 AM 82.9 °F 87.0 °F 70.0 °F 65% 30.06 in 10.0 mi WSW 4.6 mph - N/A   Scattered Clouds
10:56 AM 84.0 °F 89.0 °F 71.1 °F 65% 30.06 in 10.0 mi SW 8.1 mph - N/A   Mostly Cloudy
11:56 AM 87.1 °F 93.6 °F 72.0 °F 61% 30.06 in 10.0 mi SSW 12.7 mph - N/A   Scattered Clouds
12:17 PM 86.0 °F 91.8 °F 71.6 °F 62% 30.07 in 10.0 mi SW 10.4 mph - N/A Thunderstorm Thunderstorm
12:56 PM 81.0 °F 86.7 °F 75.0 °F 82% 30.05 in 8.0 mi SSW 13.8 mph 17.3 mph 0.05 in Thunderstorm Thunderstorm
1:39 PM 80.6 °F 85.4 °F 73.4 °F 79% 30.07 in 10.0 mi SW 11.5 mph - N/A   Mostly Cloudy
1:56 PM 81.0 °F 85.8 °F 73.0 °F 77% 30.06 in 10.0 mi SSW 12.7 mph - N/A   Mostly Cloudy
2:56 PM 82.0 °F 86.3 °F 71.1 °F 69% 30.05 in 10.0 mi SSW 16.1 mph 20.7 mph N/A   Scattered Clouds
3:05 PM 80.6 °F 84.6 °F 71.6 °F 74% 30.05 in 10.0 mi SW 15.0 mph 23.0 mph N/A Thunderstorm Thunderstorm
3:46 PM 73.4 °F - 69.8 °F 88% 30.07 in 1.8 mi West 16.1 mph 29.9 mph 0.03 in Rain , Thunderstorm Heavy Thunderstorms and Rain
3:56 PM 73.0 °F - 70.0 °F 90% 30.06 in 1.2 mi West 9.2 mph 21.9 mph 0.16 in Rain , Thunderstorm Heavy Thunderstorms and Rain
4:00 PM 73.4 °F - 69.8 °F 88% 30.07 in 1.2 mi WNW 10.4 mph - 0.01 in Rain , Thunderstorm Heavy Thunderstorms and Rain
4:16 PM 73.4 °F - 71.6 °F 94% 30.07 in 5.0 mi WNW 6.9 mph - 0.06 in Rain , Thunderstorm Light Thunderstorms and Rain
4:56 PM 73.9 °F - 71.1 °F 91% 30.03 in 10.0 mi WSW 5.8 mph - 0.09 in Rain , Thunderstorm Light Thunderstorms and Rain
5:03 PM 73.4 °F - 71.6 °F 94% 30.03 in 10.0 mi WSW 5.8 mph - 0.00 in Rain Light Rain
5:56 PM 78.1 °F - 72.0 °F 81% 30.02 in 10.0 mi SW 10.4 mph - 0.00 in   Scattered Clouds
6:56 PM 78.1 °F - 72.0 °F 81% 30.02 in 10.0 mi SSW 8.1 mph - N/A   Partly Cloudy
7:56 PM 77.0 °F - 73.0 °F 88% 30.02 in 10.0 mi SSW 5.8 mph - N/A   Partly Cloudy
8:56 PM 75.9 °F - 73.0 °F 91% 30.03 in 10.0 mi SSW 4.6 mph - N/A   Partly Cloudy
9:56 PM 75.9 °F - 73.0 °F 91% 30.05 in 10.0 mi South 5.8 mph - N/A   Partly Cloudy
10:56 PM 75.9 °F - 72.0 °F 87% 30.06 in 10.0 mi SSW 4.6 mph - N/A   Clear
11:56 PM 75.9 °F - 72.0 °F 87% 30.06 in 10.0 mi SSW 4.6 mph - N/A   Clear